Find UtilitySat

NORAD ID: 62454 Int'l Des: 2024-252 Owner: SPGUK Country: UK operational
MEOELLIPTICALHEO_ELLIPTICAL

リアルタイム位置

3D地球を読み込み中...

UtilitySatについて

説明を読み込み中...

次回通過

Passes for default location (London). Set your location on the main map for personalized predictions.

高度履歴

Loading altitude history...

軌道要素

1 62454U 24252A 26036.36662195 -.00000141 00000-0 00000-0 0 9998
2 62454 9.0086 332.5475 7515191 238.8027 28.0514 1.00326217 4101
Epoch: Feb 5, 2026 • Age: 1684 hours

現在のステータス

高度 67534.4 km
速度 1.15 km/s
衛星直下点 8.27°N, 6.4°W
打ち上げ日 Dec 29, 2024
運用期間 1.2 years
タイプ other

技術仕様

分類 Payload
質量 400.00 kg
乾燥質量 400.00 kg
総質量 400.00 kg
長さ 1.50 m
直径 1.50 m
スパン 10.00 m
形状 Box +22 pan
製造者 ASTRAN
バスタイプ MicroGEO
フェーズステータス In Orbit
所有者/国 SPGUK/UK

Most Searched